{"data":{"norad_id":53574,"epoch":"2026-09-20T13:35:21.601536Z","epoch_age_seconds":72495,"freshness":"FRESH","line1":"1 53574U 22101AZ  26263.56622224  .00000293  00000+0  19800-4 0  9993","line2":"2 53574  53.1586 243.2787 0001289  86.6250 273.4900 15.34392090226083","mean_motion":15.3439209,"eccentricity":0.0001289,"inclination_deg":53.1586,"raan_deg":243.2787,"arg_perigee_deg":86.625,"mean_anomaly_deg":273.49,"bstar":1.98e-5,"rev_number":22608,"period_min":93.848241879297,"perigee_km":461.84496315762,"apogee_km":463.6085378325,"semimajor_km":6840.8637504951,"source":"CELESTRAK","updated_at":"2026-09-21T09:00:32.932047Z"}}